Location: *
(48.8667°N, 2.3331°E)
Time: 08:51:15
(UTC+00:00)

Cosmos 2061 Rocket - Pass Details

Date: 15 August 2020
Orbit: 966 x 1012 km, 82.9° (Epoch: 23 September)

Event Time Altitude Azimuth Distance (km) Brightness Sun altitude
Exits shadow 20:50:44 22° 123° (ESE) 1,977 5.0 -15.4°
Maximum altitude 20:53:20 30° 85° (E) 1,667 4.9 -15.7°
Drops below altitude 10° 20:58:35 10° 27° (NNE) 2,719 6.6 -16.3°
Sets 21:01:23 0° 17° (NNE) 3,672 7.4 -16.6°
